Location: Habighorst
(52.7089°N, 10.2278°E)
Time: 00:35:33
(UTC+00:00)

Cosmos 2263 Rocket - Pass Details

Date: 13 January 2026
Orbit: 821 x 849 km, 71.0° (Epoch: 9 February)

Event Time Altitude Azimuth Distance (km) Brightness Sun altitude
Exits shadow 03:44:56 18° 7° (N) 1,954 4.2 -32.4°
Drops below altitude 10° 03:46:46 10° 20° (NNE) 2,482 4.9 -32.1°
Sets 03:49:35 0° 32° (NNE) 3,423 5.8 -31.7°
